User: anonymous   Login
Location: Goheenville
(40.9070°N, 79.3720°W)
Time: 15:17:40
(UTC-04:00)
Language:

NOAA 11 - Orbit

View from above orbital plane
View from above orbital plane
View from above satellite
View from above satellite

Ground track
Ground track

The orbit data is extracted from the following two-line orbital elements,

1 19531U 88089A   16125.25621113 -.00000009  00000-0  16802-4 0  9999
2 19531  98.6048 193.1771 0012163 128.1687 232.0585 14.15185459424919
Epoch (UTC): 04 May 2016 06:08:56
Eccentricity: 0.0012163
inclination: 98.6048°
perigee height: 833 km
apogee height: 850 km
right ascension of ascending node: 193.1771°
argument of perigee: 128.1687°
revolutions per day: 14.15185459
mean anomaly at epoch: 232.0585°
orbit number at epoch: 42491

The dashed part of the orbit path shows where the satellite is in the earth's shadow,  

DLR